User: anonymous
Location: Iola
(37.9240°N, 95.4000°W)
Time: 23:23:38
(UTC-05:00)
Language:

Meteor 2-10 Rocket - Orbit

View from above orbital plane
View from above orbital plane
View from above satellite
View from above satellite

Ground track
Ground track

The orbit data is extracted from the following two-line orbital elements,

1 14453U 83109B   14243.62426558  .00000105  00000-0  37167-4 0  2234
2 14453 081.1656 052.8890 0105981 135.6109 296.1801 14.24508876602221
Epoch (UTC): 31 August 2014 14:58:56
Eccentricity: 0.0105981
inclination: 81.1656°
perigee height: 734 km
apogee height: 886 km
right ascension of ascending node: 52.8890°
argument of perigee: 135.6109°
revolutions per day: 14.24508876
mean anomaly at epoch: 296.1801°
orbit number at epoch: 60222

The dashed part of the orbit path shows where the satellite is in the earth's shadow,  

DLR